{"data":{"norad_id":64510,"intl_designator":"2025-134L","name":"KUIPER-00050","alt_names":[],"object_type":"PAYLOAD","status":"ACTIVE","operator":null,"country":"US","launch_date":"2025-06-23","launch_site_code":"AFETR","launch_vehicle":null,"mission":null,"orbit_class":"UNKNOWN","rcs_meters":null,"size_class":null,"mass_kg":null,"dimensions":null,"purposes":[],"wikipedia_slug":null,"has_3d_model":false,"image_url":null,"decayed_at":null,"tle_current":{"epoch":"2026-05-25T04:47:27.354624Z","epoch_age_seconds":64758,"freshness":"FRESH","line1":"1 64510U 25134L   26145.19962216  .00000719  00000+0  12324-3 0  9996","line2":"2 64510  51.8970 232.2301 0000396  67.8670 292.2334 14.79933931 51722","mean_motion":14.79933931,"eccentricity":3.96e-5,"inclination_deg":51.897,"raan_deg":232.2301,"arg_perigee_deg":67.867,"mean_anomaly_deg":292.2334,"bstar":0.00012324,"rev_number":5172,"period_min":97.30164096089,"perigee_km":629.2551865205,"apogee_km":629.81019395997,"semimajor_km":7007.6696902402,"source":"CELESTRAK","updated_at":"2026-05-25T13:38:04.573997Z"}}}